Tracking 30744 objects as of 23-Jun-2025
HD Live streaming from Space Station
objects crossing your sky now

FENGYUN 1C DEB

Track FENGYUN 1C DEB now!
10-day predictions


NORAD ID: 37927
Int'l Code: 1999-025EPC
Perigee: 684.4 km
Apogee: 697.9 km
Inclination: 98.8 °
Period: 98.4 minutes
Semi major axis: 7062 km
RCS: 0.0028 m2 (small)
Launch date: May 10, 1999
Source: People's Republic of China (PRC)
Launch site: Taiyaun Space Center, China (TSC)

Note: This is SATELLITE DEBRIS
Your satellite tracking list
Your tracking list is empty




NASA's NSSDC Master Catalog

Two Line Element Set (TLE):
1 37927U 99025EPC 25170.61804465  .00011049  00000-0  21690-2 0  9997
2 37927  98.8034 301.5261 0009540 111.7462 248.4754 14.62843818814473
Source of the keplerian elements: AFSPC